Regional Weather Roundup
Issued by NWS

Home | Current Version | Previous Version | Graphics & Text | Print | Product List | Glossary On
Versions: 1 2 3 4 5 6 7 8 9 10 11 12 13 14 15 16 17 18 19 20 21 22 23 24 25 26 27 28 29 30 31 32 33 34 35 36 37 38 39 40 41 42 43 44 45 46 47 48 49 50
284
ASUS43 KMPX 231201
RWRMN
WEATHER ROUNDUP FOR MINNESOTA
NATIONAL WEATHER SERVICE TWIN CITIES/CHANHASSEN MN
700 AM CDT WED MAY 23 2018


NOTE: "FAIR" INDICATES FEW OR NO CLOUDS BELOW 12,000 FEET WITH NO
SIGNIFICANT WEATHER AND/OR OBSTRUCTIONS TO VISIBILITY. N/A MEANS
CURRENT SKY AND/OR WEATHER CONDITIONS ARE NOT AVAILABLE.

MNZ060>063-068>070-231300-
   Twin Cities Metro

CITY           SKY/WX    TMP DP  RH WIND       PRES   REMARKS
TWIN CITIES    PTSUNNY   64  60  87 SE7       30.11R
6HR MIN TEMP:  62; 6HR MAX TEMP:  64;

ST PAUL        FAIR      62  58  86 SE3       30.12R
CRYSTAL        FAIR      65  58  78 SE9       30.09R
BLAINE         FAIR      64  63  94 S8        30.11R
LAKEVILLE      FAIR      61  61 100 SE5       30.11R
EDEN PRAIRIE   FAIR      64  58  80 SE9       30.09R
6HR MIN TEMP:  62; 6HR MAX TEMP:  65;

SOUTH ST PAUL  FAIR      62  60  92 SE3       30.12R
LAKE ELMO      FAIR      61  59  94 CALM      30.14R
$$
MNZ001>005-007-008-013>017-022>024-027-028-231300-
   Northwest Minnesota

CITY           SKY/WX    TMP DP  RH WIND       PRES   REMARKS
BEMIDJI        FAIR      52  51  99 E5        30.10S
HALLOCK        FAIR      63  55  77 SE9       30.03S
ROSEAU         FAIR      61  55  82 S5        30.07R
WARROAD        FAIR      57  54  88 CALM      30.08R
THIEF RVR FALL FAIR      61  55  81 SE7       30.06F
CROOKSTON      FAIR      61  55  82 SE8       30.03F
FOSSTON        FAIR      57  52  82 CALM      30.06F
DETROIT LAKES  FAIR      61  55  82 SE6       30.07S
MOORHEAD       FAIR      64  55  72 S6        30.04R
PARK RAPIDS    FAIR      59  55  87 SE6       30.08F
MAHNOMEN       FAIR      60  55  82 SE8       30.04F
$$
MNZ006-009>011-018-025>026-231300-
   North Central Minnesota

CITY           SKY/WX    TMP DP  RH WIND       PRES   REMARKS
BAUDETTE       FAIR      58  55  90 CALM      30.09R
FLAG ISLAND    FAIR      57  55  94 SE3       30.08R
INTL FALLS     FAIR      56  52  86 CALM      30.11R
6HR MIN TEMP:  45; 6HR MAX TEMP:  56;

WASKISH          N/A     57  54  88 CALM      30.11R
BIG FORK       FAIR      52  50  93 CALM      30.13R
LONGVILLE      FAIR      48  48 100 CALM      30.10F FOG
GRAND RAPIDS   FAIR      52  51  97 CALM      30.16R
CRANE LAKE     FAIR      46  46 100 CALM      30.14R
ORR            FAIR      54  52  94 CALM      30.11R
COOK           FAIR      54  52  94 CALM      30.14R
WALKER         FAIR      55  55  97 E3        30.10S
$$
MNZ012-019>021-037-231300-
   Northeast Minnesota

CITY           SKY/WX    TMP DP  RH WIND       PRES   REMARKS
DULUTH         FAIR      58  53  84 W3        30.14R
6HR MIN TEMP:  50; 6HR MAX TEMP:  62;

ELY            FAIR      54  52  94 CALM      30.13R
HIBBING        FAIR      48  46  93 CALM      30.14R
EVELETH        FAIR      46  45  93 CALM      30.14R
DULUTH HARBOR  FAIR      57  55  94 SW5       30.14R
TWO HARBORS    FAIR      63  57  82 CALM      30.11R
SILVER BAY     FAIR      57  55  94 CALM      30.10R
GRAND MARAIS     N/A     52  46  80 MISG      30.09R
G MARAIS ARPRT FAIR      57  46  67 CALM      30.14R
$$
MNZ029>031-032-039>041-046>048-054>057-064-231300-
   West Central Minnesota

CITY           SKY/WX    TMP DP  RH WIND       PRES   REMARKS
FERGUS FALLS   FAIR      66  57  72 SE8       30.02R
WHEATON        CLOUDY    63  55  77 SE8       30.07R
MORRIS         CLOUDY    64  59  82 SE12      30.05R
ALEXANDRIA     FAIR      63  57  81 SE9       30.09R
ELBOW LAKE     FAIR      63  58  86 E9        30.06R
WADENA         FAIR      55  55 100 E3        30.07S FOG
GLENWOOD       FAIR      61  57  88 SE8       30.09R FOG
APPLETON       CLOUDY    64  57  77 SE6       30.06R
BENSON         CLOUDY    64  59  82 SE5       30.08R
ORTONVILLE     CLOUDY    63  57  82 SE6       30.04R
MADISON        CLOUDY    66  61  82 E5        30.05R
WILLMAR        FAIR      61  59  94 E8        30.09R
$$
MNZ033>034-036-042>043-049>051-058-059-231300-
   Central Minnesota

CITY           SKY/WX    TMP DP  RH WIND       PRES   REMARKS
ST CLOUD       FAIR      61  58  90 SE6       30.09R
6HR MIN TEMP:  54; 6HR MAX TEMP:  61;

SAUK CENTRE    FAIR      61  58  91 SE5       30.09R
PAYNESVILLE    FAIR      62  59  91 SE6       30.09R
PINE RIVER     FAIR      52  48  87 CALM      30.12F
BRAINERD       FAIR      56  54  93 CALM      30.10S FOG
STAPLES        FAIR      55  55 100 CALM      30.08S
LONG PRAIRIE   FAIR      59  55  88 E6        30.09R
LITTLE FALLS   FAIR      59  59 100 CALM      30.09S
LITCHFIELD     FAIR      64  63  94 SE6       30.08S
BUFFALO        FAIR      63  57  83 E3        30.10F
MAPLE LAKE     FAIR      63  60  89 SE3       30.10S
HUTCHINSON     FAIR      62  60  94 CALM      30.10R
$$
MNZ037-044-045-052-053-231300-
   East Central Minnesota

CITY           SKY/WX    TMP DP  RH WIND       PRES   REMARKS
PRINCETON      FAIR      59  57  94 CALM      30.11R FOG
MORA             N/A     50  50 100 CALM      30.14R FOG
CAMBRIDGE      FAIR      63  55  77 CALM      30.11S
RUSH CITY      FAIR      55  54  97 CALM      30.12R FOG
MOOSE LAKE     FAIR      50  48  93 CALM      30.12R FOG
HINCKLEY       FAIR      52  52 100 NE3       30.13R
CLOQUET        FAIR      55  52  88 CALM      30.14R
MCGREGOR       FAIR      52  52 100 CALM      30.13R
$$
MNZ071>073-080-081-089-090-097-098-231300-
   Southwest Minnesota

CITY           SKY/WX    TMP DP  RH WIND       PRES   REMARKS
MONTEVIDEO     CLOUDY    64  61  88 SE6       30.05R
GRANITE FALLS  RAIN      66  63  90 CALM      30.06R
CANBY          CLOUDY    67  62  82 SE5       30.05R
MARSHALL       CLOUDY    65  61  87 S16       30.03R
REDWOOD FALLS  LGT RAIN  62  62 100 SE7       30.03S
OLIVIA         CLOUDY    63  59  88 NE9       30.03F
PIPESTONE      PTSUNNY   66  61  82 SE14      30.03R
WINDOM         CLOUDY    64  46  52 SE5       30.09R
WORTHINGTON    CLOUDY    64  58  80 SE15      30.08R
JACKSON        CLOUDY    63  57  82 SE9       30.10R
TRACY          PTSUNNY   64  63  94 SE14      30.05F
SLAYTON        PTSUNNY   64  59  85 SE12      30.07R
$$
MNZ065>067-074>077-082>085-091>093-231300-
   South Central Minnesota

CITY           SKY/WX    TMP DP  RH WIND       PRES   REMARKS
MANKATO        RAIN      64  61  90 SW5       30.11R
NEW ULM        RAIN      63  61  94 S13       30.07F
ST JAMES       CLOUDY   N/A N/A N/A CALM      30.12R
FAIRMONT       MOSUNNY   62  60  93 S5        30.12R
GLENCOE        FAIR      64  64 100 SE5       30.09R
FARIBAULT      FAIR      64  61  88 CALM      30.12R
OWATONNA       FAIR      64  61  88 S12       30.12R
WASECA         LGT RAIN  63  59  88 E6        30.10F
ALBERT LEA     LGT RAIN  63  61  94 S8        30.13R
$$
MNZ078>079-086>088-094>096-231300-
   Southeast Minnesota

CITY           SKY/WX    TMP DP  RH WIND       PRES   REMARKS
ROCHESTER      LGT RAIN  59  58  96 S8        30.16R
6HR MIN TEMP:  57; 6HR MAX TEMP:  59; 6HR PCP:  0.02;

RED WING       PTSUNNY   61  57  88 E3        30.13R FOG
STANTON        FAIR      64  58  83 S8        30.11R
DODGE CENTER   RAIN      61  57  88 SE3       30.15R
WINONA         CLOUDY    55  54  94 SE3       30.14R FOG
AUSTIN         LGT RAIN  61  59  94 CALM      30.15R
PRESTON        CLOUDY    59  56  92 SE6       30.16R
$$
ABBREVIATIONS USED IN REMARKS
   TC - TEMPERATURES IN CELSIUS
  WCI - WIND CHILL INDEX
   HX - HEAT INDEX
  VSB - VISIBILITY
$$




USA.gov is the U.S. government's official web portal to all federal, state and local government web resources and services.